TimeEST,TemperatureF,Dew PointF,Humidity,Sea Level PressureIn,VisibilityMPH,Wind Direction,Wind SpeedMPH,Gust SpeedMPH,PrecipitationIn,Events,Conditions,WindDirDegrees,DateUTC
12:53 AM,32.0,26.1,79,29.88,10.0,NW,19.6,25.3,N/A,,Overcast,320,2011-12-28 05:53:00
1:53 AM,32.0,24.1,73,29.90,10.0,NW,18.4,-,N/A,,Overcast,320,2011-12-28 06:53:00
2:40 AM,30.2,24.8,80,29.92,10.0,NW,11.5,-,N/A,,Overcast,320,2011-12-28 07:40:00
3:53 AM,30.0,21.0,69,29.96,10.0,NW,15.0,26.5,N/A,,Overcast,320,2011-12-28 08:53:00
4:33 AM,30.2,19.4,64,29.96,10.0,NW,19.6,28.8,N/A,,Overcast,310,2011-12-28 09:33:00
4:53 AM,28.9,19.9,69,29.98,10.0,NNW,19.6,27.6,N/A,,Overcast,330,2011-12-28 09:53:00
5:53 AM,28.0,19.9,72,29.99,10.0,NW,10.4,-,N/A,,Mostly Cloudy,320,2011-12-28 10:53:00
6:53 AM,27.0,19.9,75,30.01,10.0,NW,5.8,-,N/A,,Scattered Clouds,320,2011-12-28 11:53:00
7:53 AM,26.1,19.0,75,30.03,10.0,NW,4.6,-,N/A,,Clear,310,2011-12-28 12:53:00
8:53 AM,27.0,19.0,72,30.06,10.0,WNW,9.2,-,N/A,,Clear,290,2011-12-28 13:53:00
9:53 AM,28.0,19.9,72,30.07,10.0,NW,6.9,-,N/A,,Clear,310,2011-12-28 14:53:00
10:53 AM,28.9,19.9,69,30.07,10.0,NNW,6.9,-,N/A,,Mostly Cloudy,330,2011-12-28 15:53:00
11:53 AM,28.9,19.9,69,30.06,10.0,NW,6.9,-,N/A,,Overcast,320,2011-12-28 16:53:00
12:53 PM,30.0,21.0,69,30.05,10.0,West,5.8,-,N/A,,Overcast,270,2011-12-28 17:53:00
1:53 PM,30.0,21.0,69,30.04,10.0,West,8.1,-,N/A,,Overcast,270,2011-12-28 18:53:00
2:53 PM,30.9,21.9,69,30.04,10.0,West,10.4,-,N/A,,Overcast,270,2011-12-28 19:53:00
3:53 PM,30.0,21.9,72,30.05,10.0,West,5.8,-,N/A,,Scattered Clouds,260,2011-12-28 20:53:00
4:53 PM,30.0,21.0,69,30.05,10.0,WNW,3.5,-,N/A,,Scattered Clouds,290,2011-12-28 21:53:00
5:53 PM,28.9,21.0,72,30.06,10.0,WSW,3.5,-,N/A,,Scattered Clouds,250,2011-12-28 22:53:00
6:53 PM,28.9,21.9,75,30.05,10.0,Calm,Calm,-,N/A,,Overcast,0,2011-12-28 23:53:00
7:53 PM,30.0,21.9,72,30.03,10.0,Calm,Calm,-,N/A,,Mostly Cloudy,0,2011-12-29 00:53:00
8:53 PM,30.0,21.9,72,30.02,10.0,South,4.6,-,N/A,,Overcast,190,2011-12-29 01:53:00
9:53 PM,30.0,21.9,72,30.01,10.0,South,5.8,-,N/A,,Overcast,190,2011-12-29 02:53:00
10:53 PM,30.9,23.0,72,29.99,10.0,South,5.8,-,N/A,,Overcast,190,2011-12-29 03:53:00
11:53 PM,32.0,24.1,73,29.96,10.0,SSW,5.8,-,N/A,,Overcast,210,2011-12-29 04:53:00